| time (UTC) | temp C | wind direction | speed KPH | gust KPH | rain 1hr cm | rain 24hr cm | rain mn cm | humidity % | barometer mb |
| 20260505125007 | 18 | 177 | 6.4 | 20.9 | 0.00 | 0.20 | 0.20 | 55 | 1010.6 |
| 20260505124522 | 18 | 138 | 9.7 | 20.9 | 0.00 | 0.20 | 0.20 | 57 | 1010.7 |
| 20260505124007 | 18 | 72 | 3.2 | 22.5 | 0.00 | 0.20 | 0.20 | 58 | 1010.8 |
| 20260505123507 | 18 | 124 | 8.0 | 22.5 | 0.00 | 0.20 | 0.20 | 58 | 1010.8 |
| 20260505123027 | 17 | 34 | 6.4 | 16.1 | 0.00 | 0.20 | 0.20 | 60 | 1010.9 |
| 20260505122506 | 17 | 208 | 4.8 | 17.7 | 0.00 | 0.20 | 0.20 | 62 | 1010.9 |
| 20260505122010 | 17 | 82 | 9.7 | 17.7 | 0.00 | 0.20 | 0.20 | 60 | 1010.8 |
| 20260505121526 | 17 | 141 | 4.8 | 17.7 | 0.00 | 0.20 | 0.20 | 60 | 1010.9 |
| 20260505121009 | 17 | 124 | 4.8 | 16.1 | 0.00 | 0.20 | 0.20 | 61 | 1010.9 |
| 20260505120508 | 16 | 90 | 4.8 | 16.1 | 0.00 | 0.20 | 0.20 | 62 | 1010.9 |
| 20260505120032 | 16 | 87 | 4.8 | 16.1 | 0.00 | 0.20 | 0.20 | 63 | 1011.0 |
| 20260505115508 | 16 | 111 | 1.6 | 12.9 | 0.00 | 0.20 | 0.20 | 66 | 1011.0 |
| 20260505115011 | 16 | 39 | 1.6 | 12.9 | 0.00 | 0.20 | 0.20 | 66 | 1011.1 |
| 20260505114530 | 16 | 80 | 8.0 | 12.9 | 0.00 | 0.20 | 0.20 | 67 | 1011.1 |
| 20260505114009 | 15 | 79 | 1.6 | 12.9 | 0.00 | 0.20 | 0.20 | 69 | 1011.2 |
| 20260505113507 | 15 | 82 | 6.4 | 9.7 | 0.00 | 0.20 | 0.20 | 68 | 1011.2 |
| 20260505113025 | 15 | 68 | 1.6 | 8.0 | 0.00 | 0.20 | 0.20 | 71 | 1011.2 |
| 20260505112506 | 15 | 60 | 1.6 | 11.3 | 0.00 | 0.20 | 0.20 | 71 | 1011.2 |
| 20260505112007 | 15 | 65 | 4.8 | 11.3 | 0.00 | 0.20 | 0.20 | 71 | 1011.3 |
| 20260505111526 | 14 | 84 | 4.8 | 9.7 | 0.00 | 0.20 | 0.20 | 71 | 1011.3 |
| 20260505111010 | 14 | 95 | 0.0 | 4.8 | 0.00 | 0.20 | 0.20 | 73 | 1011.1 |
| 20260505110510 | 14 | 352 | 1.6 | 8.0 | 0.00 | 0.20 | 0.20 | 73 | 1011.1 |
| 20260505102008 | 13 | 67 | 0.0 | 9.7 | 0.00 | 0.20 | 0.20 | 77 | 1010.5 |
| 20260505101512 | 13 | 23 | 3.2 | 9.7 | 0.00 | 0.20 | 0.20 | 78 | 1010.4 |
| 20260505101004 | 12 | 64 | 1.6 | 6.4 | 0.00 | 0.20 | 0.20 | 80 | 1010.4 |
| 20260505100504 | 12 | 104 | 1.6 | 6.4 | 0.00 | 0.20 | 0.20 | 80 | 1010.3 |
| 20260505100019 | 12 | 1 | 0.0 | 3.2 | 0.00 | 0.20 | 0.20 | 81 | 1010.3 |
| 20260505095507 | 12 | 329 | 0.0 | 3.2 | 0.00 | 0.20 | 0.20 | 82 | 1010.3 |
| 20260505095003 | 12 | 268 | 1.6 | 3.2 | 0.00 | 0.20 | 0.20 | 83 | 1010.3 |
| 20260505094517 | 12 | 314 | 1.6 | 3.2 | 0.00 | 0.20 | 0.20 | 83 | 1010.2 |
| 20260505094005 | 12 | 337 | 1.6 | 3.2 | 0.00 | 0.20 | 0.20 | 82 | 1010.2 |
| 20260505093504 | 12 | 210 | 0.0 | 3.2 | 0.00 | 0.20 | 0.20 | 80 | 1010.3 |
| 20260505093032 | 12 | 210 | 0.0 | 3.2 | 0.00 | 0.20 | 0.20 | 80 | 1010.2 |
| 20260505092509 | 12 | 192 | 0.0 | 3.2 | 0.00 | 0.20 | 0.20 | 79 | 1010.3 |
| 20260505092007 | 13 | 192 | 0.0 | 3.2 | 0.00 | 0.20 | 0.20 | 77 | 1010.2 |
| 20260505091526 | 13 | 82 | 0.0 | 6.4 | 0.00 | 0.20 | 0.20 | 77 | 1010.3 |
| 20260505091007 | 13 | 46 | 0.0 | 6.4 | 0.00 | 0.20 | 0.20 | 75 | 1010.2 |
| 20260505090503 | 13 | 84 | 1.6 | 6.4 | 0.00 | 0.20 | 0.20 | 76 | 1010.4 |
| 20260505090010 | 13 | 75 | 1.6 | 4.8 | 0.00 | 0.20 | 0.20 | 76 | 1010.4 |
| 20260505085506 | 13 | 54 | 1.6 | 6.4 | 0.00 | 0.20 | 0.20 | 75 | 1010.5 |
| 20260505085007 | 13 | 80 | 0.0 | 6.4 | 0.00 | 0.20 | 0.20 | 76 | 1010.5 |
| 20260505084515 | 13 | 134 | 1.6 | 6.4 | 0.00 | 0.20 | 0.20 | 77 | 1010.6 |
| 20260505084003 | 13 | 66 | 1.6 | 9.7 | 0.00 | 0.20 | 0.20 | 77 | 1010.7 |
| 20260505083506 | 12 | 89 | 3.2 | 9.7 | 0.00 | 0.20 | 0.20 | 77 | 1010.6 |
| 20260505083025 | 12 | 200 | 3.2 | 19.3 | 0.00 | 0.20 | 0.20 | 82 | 1010.6 |
| 20260505082505 | 12 | 160 | 3.2 | 19.3 | 0.00 | 0.20 | 0.20 | 82 | 1010.5 |
| 20260505082008 | 11 | 172 | 6.4 | 11.3 | 0.00 | 0.20 | 0.20 | 83 | 1010.4 |
| 20260505081525 | 12 | 167 | 1.6 | 3.2 | 0.00 | 0.20 | 0.20 | 80 | 1010.1 |
| 20260505081008 | 12 | 359 | 0.0 | 3.2 | 0.00 | 0.20 | 0.20 | 79 | 1009.8 |
| 20260505080507 | 12 | 1 | 0.0 | 3.2 | 0.00 | 0.20 | 0.20 | 81 | 1009.7 |
| 20260505080025 | 12 | 360 | 0.0 | 3.2 | 0.00 | 0.20 | 0.20 | 81 | 1009.8 |
| 20260505075504 | 12 | 353 | 0.0 | 3.2 | 0.00 | 0.20 | 0.20 | 83 | 1009.8 |
| 20260505075004 | 11 | 339 | 0.0 | 3.2 | 0.00 | 0.20 | 0.20 | 83 | 1009.8 |
| 20260505074512 | 11 | 57 | 0.0 | 3.2 | 0.13 | 0.20 | 0.20 | 83 | 1009.8 |
| 20260505074004 | 12 | 101 | 0.0 | 3.2 | 0.18 | 0.20 | 0.20 | 83 | 1009.8 |
| 20260505073505 | 12 | 94 | 0.0 | 3.2 | 0.20 | 0.20 | 0.20 | 82 | 1009.8 |
| 20260505073019 | 12 | 91 | 0.0 | 3.2 | 0.20 | 0.20 | 0.20 | 81 | 1009.8 |
| 20260505072509 | 12 | 89 | 0.0 | 3.2 | 0.20 | 0.20 | 0.20 | 79 | 1009.7 |
| 20260505072005 | 13 | 89 | 0.0 | 3.2 | 0.20 | 0.20 | 0.20 | 79 | 1009.6 |
| 20260505071522 | 13 | 89 | 0.0 | 3.2 | 0.20 | 0.20 | 0.20 | 77 | 1009.6 |
| 20260505071007 | 13 | 188 | 0.0 | 3.2 | 0.20 | 0.20 | 0.20 | 77 | 1009.7 |
| 20260505070511 | 13 | 1 | 0.0 | 3.2 | 0.20 | 0.20 | 0.20 | 77 | 1009.7 |
| 20260505070026 | 14 | 79 | 1.6 | 9.7 | 0.20 | 0.20 | 0.20 | 76 | 1009.8 |
| 20260505065509 | 14 | 96 | 1.6 | 17.7 | 0.20 | 0.20 | 0.20 | 73 | 1010.0 |
| 20260505065009 | 15 | 143 | 6.4 | 27.4 | 0.20 | 0.20 | 0.20 | 71 | 1010.1 |
| 20260505064528 | 15 | 243 | 6.4 | 20.9 | 0.08 | 0.08 | 0.08 | 66 | 1010.4 |
| 20260505064004 | 15 | 101 | 8.0 | 17.7 | 0.03 | 0.03 | 0.03 | 63 | 1010.3 |
| 20260505063505 | 15 | 97 | 8.0 | 17.7 | 0.00 | 0.00 | 0.00 | 64 | 1009.9 |
| 20260505063017 | 14 | 117 | 3.2 | 9.7 | 0.00 | 0.00 | 0.00 | 66 | 1009.8 |
| 20260505062506 | 13 | 84 | 0.0 | 8.0 | 0.00 | 0.00 | 0.00 | 67 | 1009.8 |
| 20260505062008 | 13 | 42 | 1.6 | 6.4 | 0.00 | 0.00 | 0.00 | 67 | 1009.7 |
| 20260505061526 | 13 | 14 | 1.6 | 3.2 | 0.00 | 0.00 | 0.00 | 68 | 1009.6 |
| 20260505061003 | 13 | 44 | 0.0 | 3.2 | 0.00 | 0.00 | 0.00 | 67 | 1009.7 |
| 20260505060508 | 13 | 60 | 0.0 | 3.2 | 0.00 | 0.00 | 0.00 | 67 | 1009.7 |
| 20260505060024 | 13 | 63 | 0.0 | 3.2 | 0.00 | 0.00 | 0.00 | 67 | 1009.8 |
| 20260505055509 | 13 | 77 | 0.0 | 3.2 | 0.00 | 0.00 | 0.00 | 67 | 1009.9 |
| 20260505055010 | 14 | 58 | 0.0 | 3.2 | 0.00 | 0.00 | 0.00 | 66 | 1010.0 |
| 20260505054526 | 14 | 58 | 0.0 | 3.2 | 0.00 | 0.00 | 0.00 | 65 | 1010.0 |
| 20260505054014 | 15 | 40 | 0.0 | 3.2 | 0.00 | 0.00 | 0.00 | 64 | 1010.1 |
| 20260505053508 | 15 | 56 | 1.6 | 4.8 | 0.00 | 0.00 | 0.00 | 64 | 1010.1 |
| 20260505053014 | 15 | 65 | 1.6 | 4.8 | 0.00 | 0.00 | 0.00 | 63 | 1010.2 |
| 20260505052505 | 15 | 72 | 1.6 | 6.4 | 0.00 | 0.00 | 0.00 | 63 | 1010.2 |
| 20260505052009 | 15 | 77 | 1.6 | 6.4 | 0.00 | 0.00 | 0.00 | 62 | 1010.2 |
| 20260505051531 | 15 | 83 | 3.2 | 6.4 | 0.00 | 0.00 | 0.00 | 62 | 1010.1 |
| 20260505051011 | 15 | 77 | 4.8 | 8.0 | 0.00 | 0.00 | 0.00 | 62 | 1010.1 |
| 20260505050509 | 15 | 83 | 3.2 | 9.7 | 0.00 | 0.00 | 0.00 | 61 | 1010.2 |
| 20260505041517 | 16 | 76 | 3.2 | 8.0 | 0.00 | 0.00 | 0.00 | 61 | 1010.0 |
| 20260505041005 | 16 | 77 | 1.6 | 9.7 | 0.00 | 0.00 | 0.00 | 61 | 1010.0 |
| 20260505040505 | 16 | 83 | 3.2 | 9.7 | 0.00 | 0.00 | 0.00 | 61 | 1010.0 |
| 20260505040025 | 16 | 79 | 4.8 | 9.7 | 0.00 | 0.00 | 0.00 | 61 | 1010.0 |
| 20260505035508 | 16 | 83 | 3.2 | 12.9 | 0.00 | 0.00 | 0.00 | 61 | 1010.0 |
| 20260505035008 | 16 | 71 | 6.4 | 12.9 | 0.00 | 0.00 | 0.00 | 62 | 1010.0 |
| 20260505034529 | 15 | 64 | 1.6 | 8.0 | 0.00 | 0.00 | 0.00 | 63 | 1010.1 |
| 20260505034007 | 15 | 36 | 1.6 | 8.0 | 0.00 | 0.00 | 0.00 | 62 | 1010.1 |
| 20260505033511 | 15 | 79 | 1.6 | 6.4 | 0.00 | 0.00 | 0.00 | 62 | 1010.1 |
| 20260505033029 | 16 | 89 | 1.6 | 4.8 | 0.00 | 0.00 | 0.00 | 61 | 1010.0 |
| 20260505032507 | 16 | 79 | 1.6 | 6.4 | 0.00 | 0.00 | 0.00 | 61 | 1010.1 |
| 20260505032007 | 16 | 49 | 1.6 | 9.7 | 0.00 | 0.00 | 0.00 | 60 | 1010.0 |
| 20260505031527 | 16 | 98 | 4.8 | 9.7 | 0.00 | 0.00 | 0.00 | 60 | 1010.1 |
| 20260505031004 | 16 | 72 | 1.6 | 8.0 | 0.00 | 0.00 | 0.00 | 60 | 1010.1 |
| 20260505030504 | 16 | 77 | 3.2 | 8.0 | 0.00 | 0.00 | 0.00 | 59 | 1010.1 |
| 20260505030021 | 16 | 60 | 1.6 | 8.0 | 0.00 | 0.00 | 0.00 | 60 | 1010.1 |
| 20260505025511 | 16 | 73 | 4.8 | 8.0 | 0.00 | 0.00 | 0.00 | 59 | 1010.1 |
| 20260505025008 | 16 | 94 | 3.2 | 11.3 | 0.00 | 0.00 | 0.00 | 59 | 1010.2 |
| 20260505024522 | 16 | 143 | 4.8 | 11.3 | 0.00 | 0.00 | 0.00 | 59 | 1010.2 |
| 20260505024007 | 16 | 70 | 1.6 | 8.0 | 0.00 | 0.00 | 0.00 | 59 | 1010.2 |
| 20260505023507 | 16 | 68 | 3.2 | 11.3 | 0.00 | 0.00 | 0.00 | 59 | 1010.3 |
| 20260505023026 | 16 | 84 | 6.4 | 11.3 | 0.00 | 0.00 | 0.00 | 59 | 1010.3 |
| 20260505022506 | 16 | 48 | 1.6 | 8.0 | 0.00 | 0.00 | 0.00 | 59 | 1010.3 |
| 20260505022010 | 16 | 50 | 3.2 | 8.0 | 0.00 | 0.00 | 0.00 | 59 | 1010.2 |
| 20260505021527 | 16 | 88 | 1.6 | 8.0 | 0.00 | 0.00 | 0.00 | 59 | 1010.2 |
| 20260505021007 | 16 | 56 | 3.2 | 8.0 | 0.00 | 0.00 | 0.00 | 59 | 1010.2 |
| 20260505020508 | 16 | 70 | 1.6 | 9.7 | 0.00 | 0.00 | 0.00 | 58 | 1010.2 |
| 20260505020016 | 17 | 36 | 1.6 | 9.7 | 0.00 | 0.00 | 0.00 | 58 | 1010.1 |
| 20260505015507 | 17 | 70 | 3.2 | 9.7 | 0.00 | 0.00 | 0.00 | 58 | 1010.2 |
| 20260505015005 | 17 | 111 | 3.2 | 9.7 | 0.00 | 0.00 | 0.00 | 57 | 1010.2 |
| 20260505014524 | 17 | 75 | 6.4 | 9.7 | 0.00 | 0.00 | 0.00 | 57 | 1010.2 |
| 20260505014012 | 17 | 103 | 1.6 | 4.8 | 0.00 | 0.00 | 0.00 | 58 | 1010.2 |
| 20260505013507 | 17 | 119 | 0.0 | 6.4 | 0.00 | 0.00 | 0.00 | 58 | 1010.1 |
| 20260505013024 | 17 | 79 | 0.0 | 6.4 | 0.00 | 0.00 | 0.00 | 57 | 1010.0 |
| 20260505012507 | 17 | 83 | 1.6 | 6.4 | 0.00 | 0.00 | 0.00 | 56 | 1009.8 |
| 20260505012009 | 17 | 70 | 1.6 | 4.8 | 0.00 | 0.00 | 0.00 | 56 | 1009.7 |
| 20260505011526 | 17 | 120 | 1.6 | 6.4 | 0.00 | 0.00 | 0.00 | 56 | 1009.8 |
| 20260505011008 | 17 | 96 | 1.6 | 6.4 | 0.00 | 0.00 | 0.00 | 55 | 1009.8 |
| 20260505010512 | 17 | 103 | 0.0 | 11.3 | 0.00 | 0.00 | 0.00 | 55 | 1009.7 |
| 20260505010027 | 17 | 140 | 0.0 | 11.3 | 0.00 | 0.00 | 0.00 | 54 | 1009.8 |
| 20260505005507 | 17 | 172 | 3.2 | 17.7 | 0.00 | 0.00 | 0.00 | 54 | 1009.7 |
| 20260505005004 | 17 | 84 | 6.4 | 17.7 | 0.00 | 0.00 | 0.00 | 54 | 1009.7 |
| 20260505004521 | 18 | 92 | 4.8 | 11.3 | 0.00 | 0.00 | 0.00 | 53 | 1009.7 |
| 20260505004008 | 18 | 80 | 1.6 | 8.0 | 0.00 | 0.00 | 0.00 | 53 | 1009.7 |
| 20260505003508 | 18 | 82 | 3.2 | 17.7 | 0.00 | 0.00 | 0.00 | 53 | 1009.6 |
| 20260505003024 | 18 | 93 | 1.6 | 17.7 | 0.00 | 0.00 | 0.00 | 52 | 1009.6 |
| 20260505002508 | 18 | 121 | 3.2 | 17.7 | 0.00 | 0.00 | 0.00 | 52 | 1009.5 |
| 20260505002010 | 18 | 162 | 6.4 | 17.7 | 0.00 | 0.00 | 0.00 | 52 | 1009.4 |
| 20260505001528 | 18 | 85 | 6.4 | 11.3 | 0.00 | 0.00 | 0.00 | 52 | 1009.6 |
| 20260505001008 | 18 | 96 | 1.6 | 11.3 | 0.00 | 0.00 | 0.00 | 51 | 1009.7 |
| 20260505000507 | 18 | 85 | 3.2 | 9.7 | 0.00 | 0.00 | 0.00 | 51 | 1009.5 |
| 20260505000030 | 18 | 122 | 4.8 | 12.9 | 0.00 | 0.00 | 0.00 | 50 | 1009.5 |
| 20260504235508 | 18 | 248 | 3.2 | 12.9 | 0.00 | 0.00 | 0.00 | 50 | 1009.6 |
| 20260504235012 | 18 | 154 | 4.8 | 12.9 | 0.00 | 0.00 | 0.00 | 50 | 1009.6 |
| 20260504234532 | 19 | 193 | 6.4 | 11.3 | 0.00 | 0.00 | 0.00 | 50 | 1009.5 |
| 20260504234004 | 19 | 144 | 4.8 | 11.3 | 0.00 | 0.00 | 0.00 | 49 | 1009.4 |
| 20260504233506 | 19 | 150 | 3.2 | 11.3 | 0.00 | 0.00 | 0.00 | 49 | 1009.4 |
| 20260504233020 | 19 | 103 | 6.4 | 14.5 | 0.00 | 0.00 | 0.00 | 49 | 1009.4 |
| 20260504232508 | 19 | 202 | 6.4 | 14.5 | 0.00 | 0.00 | 0.00 | 48 | 1009.3 |
| 20260504232008 | 19 | 213 | 8.0 | 17.7 | 0.00 | 0.00 | 0.00 | 48 | 1009.4 |
| 20260504231525 | 19 | 151 | 6.4 | 14.5 | 0.00 | 0.00 | 0.00 | 49 | 1009.4 |
| 20260504231008 | 19 | 83 | 4.8 | 17.7 | 0.00 | 0.00 | 0.00 | 48 | 1009.3 |
| 20260504230511 | 20 | 149 | 6.4 | 17.7 | 0.00 | 0.00 | 0.00 | 48 | 1009.2 |
| 20260504230028 | 20 | 167 | 6.4 | 14.5 | 0.00 | 0.00 | 0.00 | 47 | 1009.2 |
| 20260504225513 | 20 | 173 | 3.2 | 16.1 | 0.00 | 0.00 | 0.00 | 47 | 1009.2 |
| 20260504225008 | 20 | 193 | 6.4 | 16.1 | 0.00 | 0.00 | 0.00 | 47 | 1009.3 |
| 20260504224529 | 20 | 188 | 9.7 | 19.3 | 0.00 | 0.00 | 0.00 | 46 | 1009.3 |
| 20260504224009 | 20 | 191 | 1.6 | 20.9 | 0.00 | 0.00 | 0.00 | 46 | 1009.2 |
| 20260504223511 | 20 | 89 | 11.3 | 29.0 | 0.00 | 0.00 | 0.00 | 45 | 1009.2 |
| 20260504223021 | 20 | 76 | 9.7 | 29.0 | 0.00 | 0.00 | 0.00 | 43 | 1009.1 |
| 20260504222508 | 21 | 110 | 1.6 | 17.7 | 0.00 | 0.00 | 0.00 | 43 | 1009.2 |
| 20260504222009 | 21 | 158 | 6.4 | 19.3 | 0.00 | 0.00 | 0.00 | 42 | 1009.4 |
| 20260504221523 | 21 | 113 | 3.2 | 25.7 | 0.00 | 0.00 | 0.00 | 42 | 1009.2 |
| 20260504221008 | 21 | 158 | 12.9 | 25.7 | 0.00 | 0.00 | 0.00 | 41 | 1009.1 |
| 20260504220509 | 21 | 210 | 8.0 | 22.5 | 0.00 | 0.00 | 0.00 | 41 | 1009.1 |
| 20260504220030 | 21 | 93 | 6.4 | 22.5 | 0.00 | 0.00 | 0.00 | 42 | 1009.1 |
| 20260504215508 | 20 | 153 | 4.8 | 17.7 | 0.00 | 0.00 | 0.00 | 42 | 1009.2 |
| 20260504215008 | 20 | 217 | 4.8 | 19.3 | 0.00 | 0.00 | 0.00 | 45 | 1009.2 |
| 20260504214530 | 20 | 150 | 11.3 | 19.3 | 0.00 | 0.00 | 0.00 | 45 | 1009.1 |
| 20260504214008 | 20 | 146 | 3.2 | 20.9 | 0.00 | 0.00 | 0.00 | 46 | 1009.1 |
| 20260504213507 | 20 | 143 | 8.0 | 20.9 | 0.00 | 0.00 | 0.00 | 46 | 1009.1 |
| 20260504213028 | 21 | 155 | 6.4 | 20.9 | 0.00 | 0.00 | 0.00 | 45 | 1009.1 |
| 20260504212508 | 20 | 83 | 3.2 | 16.1 | 0.00 | 0.00 | 0.00 | 45 | 1009.1 |
| 20260504212006 | 20 | 154 | 8.0 | 20.9 | 0.00 | 0.00 | 0.00 | 45 | 1009.1 |
| 20260504211511 | 21 | 188 | 4.8 | 20.9 | 0.00 | 0.00 | 0.00 | 46 | 1009.0 |
| 20260504211003 | 21 | 131 | 12.9 | 20.9 | 0.00 | 0.00 | 0.00 | 44 | 1009.0 |
| 20260504210503 | 20 | 86 | 11.3 | 29.0 | 0.00 | 0.00 | 0.00 | 46 | 1009.0 |
| 20260504210006 | 20 | 132 | 11.3 | 29.0 | 0.00 | 0.00 | 0.00 | 45 | 1009.1 |
| 20260504205506 | 20 | 199 | 8.0 | 19.3 | 0.00 | 0.00 | 0.00 | 46 | 1009.0 |
| 20260504205004 | 20 | 216 | 8.0 | 24.1 | 0.00 | 0.00 | 0.00 | 45 | 1009.0 |
| 20260504204514 | 20 | 138 | 16.1 | 32.2 | 0.00 | 0.00 | 0.00 | 45 | 1009.0 |
| 20260504204004 | 20 | 198 | 17.7 | 32.2 | 0.00 | 0.00 | 0.00 | 45 | 1009.1 |
| 20260504203506 | 20 | 86 | 6.4 | 22.5 | 0.00 | 0.00 | 0.00 | 47 | 1009.0 |
| 20260504203020 | 20 | 158 | 6.4 | 22.5 | 0.00 | 0.00 | 0.00 | 46 | 1009.1 |
| 20260504202504 | 20 | 144 | 9.7 | 20.9 | 0.00 | 0.00 | 0.00 | 46 | 1009.1 |
| 20260504202004 | 20 | 103 | 8.0 | 22.5 | 0.00 | 0.00 | 0.00 | 48 | 1009.1 |
| 20260504201516 | 20 | 77 | 11.3 | 22.5 | 0.00 | 0.00 | 0.00 | 45 | 1009.2 |
| 20260504201009 | 20 | 96 | 9.7 | 27.4 | 0.00 | 0.00 | 0.00 | 47 | 1009.1 |
| 20260504200505 | 20 | 93 | 11.3 | 27.4 | 0.00 | 0.00 | 0.00 | 47 | 1009.1 |
| 20260504200016 | 20 | 88 | 14.5 | 24.1 | 0.00 | 0.00 | 0.00 | 48 | 1009.1 |
| 20260504195506 | 20 | 77 | 8.0 | 22.5 | 0.00 | 0.00 | 0.00 | 47 | 1009.2 |
| 20260504195003 | 20 | 105 | 9.7 | 22.5 | 0.00 | 0.00 | 0.00 | 47 | 1009.2 |
| 20260504194513 | 20 | 78 | 12.9 | 22.5 | 0.00 | 0.00 | 0.00 | 47 | 1009.1 |
| 20260504194004 | 20 | 68 | 8.0 | 22.5 | 0.00 | 0.00 | 0.00 | 46 | 1009.3 |
| 20260504193507 | 20 | 60 | 6.4 | 12.9 | 0.00 | 0.00 | 0.00 | 48 | 1009.5 |
| 20260504193018 | 20 | 91 | 4.8 | 22.5 | 0.00 | 0.00 | 0.00 | 47 | 1009.5 |
| 20260504192504 | 20 | 87 | 9.7 | 22.5 | 0.00 | 0.00 | 0.00 | 46 | 1009.6 |
| 20260504192003 | 19 | 87 | 12.9 | 22.5 | 0.00 | 0.00 | 0.00 | 47 | 1009.8 |
| 20260504191523 | 20 | 81 | 9.7 | 19.3 | 0.00 | 0.00 | 0.00 | 46 | 1009.9 |
| 20260504191008 | 20 | 83 | 11.3 | 20.9 | 0.00 | 0.00 | 0.00 | 45 | 1009.9 |
| 20260504190504 | 20 | 122 | 3.2 | 20.9 | 0.00 | 0.00 | 0.00 | 47 | 1009.8 |
| 20260504190018 | 20 | 95 | 11.3 | 17.7 | 0.00 | 0.00 | 0.00 | 46 | 1009.9 |
| 20260504185504 | 20 | 180 | 6.4 | 19.3 | 0.00 | 0.00 | 0.00 | 45 | 1010.0 |
| 20260504185004 | 19 | 89 | 9.7 | 22.5 | 0.00 | 0.00 | 0.00 | 46 | 1010.1 |
| 20260504184512 | 19 | 120 | 11.3 | 27.4 | 0.00 | 0.00 | 0.00 | 45 | 1010.2 |
| 20260504184004 | 19 | 88 | 9.7 | 27.4 | 0.00 | 0.00 | 0.00 | 46 | 1010.3 |
| 20260504183504 | 19 | 94 | 12.9 | 19.3 | 0.00 | 0.00 | 0.00 | 44 | 1010.4 |
| 20260504183014 | 19 | 128 | 6.4 | 19.3 | 0.00 | 0.00 | 0.00 | 46 | 1010.4 |
| 20260504182510 | 19 | 116 | 9.7 | 19.3 | 0.00 | 0.00 | 0.00 | 45 | 1010.4 |
| 20260504182008 | 18 | 115 | 8.0 | 19.3 | 0.00 | 0.00 | 0.00 | 46 | 1010.4 |
| 20260504181518 | 19 | 78 | 11.3 | 17.7 | 0.00 | 0.00 | 0.00 | 45 | 1010.4 |
| 20260504181006 | 19 | 188 | 6.4 | 20.9 | 0.00 | 0.00 | 0.00 | 45 | 1010.5 |
| 20260504180507 | 19 | 118 | 11.3 | 20.9 | 0.00 | 0.00 | 0.00 | 45 | 1010.4 |
| 20260504180020 | 19 | 55 | 6.4 | 19.3 | 0.00 | 0.00 | 0.00 | 46 | 1010.4 |
| 20260504175504 | 19 | 70 | 8.0 | 16.1 | 0.00 | 0.00 | 0.00 | 44 | 1010.5 |
| 20260504175006 | 19 | 129 | 6.4 | 16.1 | 0.00 | 0.00 | 0.00 | 44 | 1010.6 |
| 20260504174520 | 19 | 88 | 8.0 | 24.1 | 0.00 | 0.00 | 0.00 | 45 | 1010.5 |
| 20260504174004 | 19 | 82 | 6.4 | 24.1 | 0.00 | 0.00 | 0.00 | 44 | 1010.6 |
| 20260504173504 | 19 | 187 | 6.4 | 22.5 | 0.00 | 0.00 | 0.00 | 44 | 1010.7 |
| 20260504173013 | 19 | 61 | 6.4 | 25.7 | 0.00 | 0.00 | 0.00 | 44 | 1010.8 |
| 20260504172505 | 19 | 91 | 12.9 | 29.0 | 0.00 | 0.00 | 0.00 | 44 | 1010.8 |
| 20260504172004 | 19 | 89 | 11.3 | 29.0 | 0.00 | 0.00 | 0.00 | 44 | 1011.0 |
| 20260504171518 | 19 | 69 | 4.8 | 27.4 | 0.00 | 0.00 | 0.00 | 43 | 1011.0 |
| 20260504171005 | 19 | 104 | 11.3 | 25.7 | 0.00 | 0.00 | 0.00 | 45 | 1010.9 |
| 20260504170508 | 18 | 162 | 6.4 | 20.9 | 0.00 | 0.00 | 0.00 | 44 | 1011.0 |
| 20260504151005 | 16 | 112 | 12.9 | 27.4 | 0.00 | 0.00 | 0.00 | 46 | 1012.0 |
| 20260504150508 | 16 | 203 | 3.2 | 24.1 | 0.00 | 0.00 | 0.00 | 46 | 1012.0 |
| 20260504141006 | 15 | 91 | 9.7 | 29.0 | 0.00 | 0.00 | 0.00 | 48 | 1012.6 |
| 20260504140507 | 15 | 127 | 11.3 | 29.0 | 0.00 | 0.00 | 0.00 | 47 | 1012.5 |
| 20260504130506 | 12 | 89 | 8.0 | 19.3 | 0.00 | 0.00 | 0.00 | 55 | 1013.0 |